User: anonymous   Login
Location: Unspecified
(0.0000°N, 0.0000°E)
Time: 00:09:23
(UTC+02:00)
Language:

Cosmos 1943 Rocket - Orbit

View from above orbital plane
View from above orbital plane
View from above satellite
View from above satellite

Ground track
Ground track

The orbit data is extracted from the following two-line orbital elements,

1 19120U 88039B   17114.94621494 -.00000073 +00000-0 -11651-4 0  9994
2 19120 071.0144 077.4165 0024286 269.7049 090.1293 14.19165891498562
Epoch (UTC): 24 April 2017 22:42:32
Eccentricity: 0.0024286
inclination: 71.0144°
perigee height: 810 km
apogee height: 845 km
right ascension of ascending node: 77.4165°
argument of perigee: 269.7049°
revolutions per day: 14.19165891
mean anomaly at epoch: 90.1293°
orbit number at epoch: 49856

The dashed part of the orbit path shows where the satellite is in the earth's shadow,  

DLR